Miscellaneous Local Product
Issued by NWS North Platte, NE

Home | Current Version | Previous Version | Graphics & Text | Print | Product List | Glossary On
Versions: 1 2 3 4 5 6 7 8 9 10 11 12 13 14 15 16 17 18 19 20 21 22 23 24 25 26 27 28 29 30 31 32 33 34 35 36 37 38 39 40 41 42 43 44 45 46 47 48 49 50
000
AXUS43 KLBF 210110
MISLBF


WESTERN AND NORTH CENTRAL NEBRASKA HOURLY WEATHER ROUNDUP
NATIONAL WEATHER SERVICE NORTH PLATTE NE
700 PM CST SAT DEC 20 2014

***STATIONS NOT REPORTING VARIABLES SUCH AS SKY/WEATHER OR
PRESSURE ARE PROVIDED BY THE NEBRASKA DEPARTMENT OF
ROADS...RAWS...AND APRS NETWORKS...AND ARE NOT UNDER
NATIONAL WEATHER SERVICE QUALITY CONTROL***

...OBSERVATIONS IN AND NEAR THE EASTERN PANHANDLE OF NEBRASKA...

CITY           SKY/WX    TMP DP  RH WIND       PRES   REMARKS
PINE RIDGE     PTCLDY    30  24  78 CALM      29.90S
CHADRON        PTCLDY    31  25  78 CALM      29.90S
ALLIANCE       PTCLDY    30  26  85 SW3       29.90S
SIDNEY         PTCLDY    31  25  78 SW9       29.95R WCI  23
WHITECLAY        N/A     27  23  84 SE5         N/A  WCI  22
CRESCENT LAKE    N/A     37  29  74 N5          N/A  WCI  33
LISCO            N/A     32  25  74 NW5         N/A  WCI  27
BIG SPRINGS      N/A     27  24  88 W3          N/A
$$

...OBSERVATIONS IN NORTH CENTRAL NEBRASKA...

CITY           SKY/WX    TMP DP  RH WIND       PRES   REMARKS
VALENTINE      CLEAR     29  25  85 W6        29.91R WCI  23
THEDFORD       CLEAR     32  29  88 W3        29.91S
AINSWORTH      PTCLDY    27  24  91 SW6       29.90S WCI  20
O`NEILL        CLOUDY    30  30 100 S6        29.95S FOG     WCI  24
BROKEN BOW     PTCLDY    32  28  85 CALM      29.93S
BROWNLEE         N/A     33  26  73 CALM        N/A
SPRINGVIEW       N/A     29  26  89 CALM        N/A
BREWSTER         N/A     32  30  93 SW6         N/A  WCI  26
ROSE             N/A     33  33  99 E5          N/A  WCI  29
SARGENT          N/A     29  28  94 CALM        N/A
COMSTOCK         N/A     35  34  94 S7          N/A  WCI  29
CHAMBERS         N/A     30  29  96 CALM        N/A
EWING            N/A     31  31  99 CALM        N/A
$$

...OBSERVATIONS IN SOUTHWEST NEBRASKA AND FAR NORTHEAST COLORADO...

CITY           SKY/WX    TMP DP  RH WIND       PRES   REMARKS
WRAY           FAIR      35  30  82 W5        29.96S WCI  31
HOLYOKE        FAIR      36  30  80 W8        29.95S WCI  29
IMPERIAL       CLOUDY    36  27  69 CALM      29.95S
OGALLALA       CLEAR     26  24  91 SW5       29.94S WCI  20
NORTH PLATTE   CLEAR     26  24  92 CALM      29.94R
MCCOOK         PTCLDY    38  31  76 S6        29.96F WCI  33
LEXINGTON      MOCLDY    34  31  87 SW6       29.96S WCI  29
PAXTON           N/A     31  27  83 CALM        N/A
BRADY            N/A     32  27  82 CALM        N/A
GOTHENBURG       N/A     37  28  70 CALM        N/A
CALLAWAY         N/A     33  29  85 S3          N/A
$$

...NORTH PLATTE AREA...

CITY           SKY/WX    TMP DP  RH WIND       PRES   REMARKS
AIRPORT        CLEAR     26  24  92 CALM      29.94R
DOWNTOWN         N/A     34  29  82 CALM        N/A
$$

...SOME WEATHER OBSERVATIONS FROM AROUND THE REGION...

CITY           SKY/WX    TMP DP  RH WIND       PRES   REMARKS
DENVER         MOCLDY    34  22  61 SE10      29.93S WCI  26
LARAMIE        CLOUDY    30  21  69 SW15      29.93F WCI  19
CHEYENNE       CLOUDY    37  19  48 W8        29.94S WCI  31
SCOTTSBLUFF    PTCLDY    28  22  78 E7        29.92R WCI  21
RAPID CITY     PTCLDY    33  26  75 CALM      29.87S
PIERRE         PTCLDY    18  17  96 E3        29.89S FOG
WINNER         FAIR      32  25  75 S6        29.90S WCI  26
SIOUX FALLS    CLOUDY    30  29  96 S12       30.00F FOG     WCI  20
OMAHA          CLOUDY    35  32  88 S9        30.09F FOG     WCI  28
GRAND ISLAND   FOG       31  30  96 S10       30.00R VSB 1/2 WCI  22
KANSAS CITY    CLOUDY    42  37  82 S10       30.12R
WICHITA        CLOUDY    44  36  73 S14       30.11R
HAYS           MOCLDY    39  30  70 S8        30.01F WCI  34
LIBERAL        MOCLDY    37  30  75 SE7       30.03S WCI  32
GOODLAND       MOCLDY    34  28  79 SE3       29.96F
$$



USA.gov is the U.S. government's official web portal to all federal, state and local government web resources and services.